Vorticity
7 -5 -4 15 6 -2 16 18 4 10 15 4 9 9 -0 7 6 6 1 -20 -13 8 8 7 9 7 -2 -0 16 17 7 6 3 1 5 2 2 3 3 5 5 4 5 6 9 8 7 6 8 9 6 5 4 4 6 4 5 4 1 9 7 -2 8 13 6 9 7 9 19 17 14 16 17 18 8 4 12 12 11 11 10 10 10 13 13 9
9 4 4 9 0 7 19 13 18 26 19 7 -6 -10 9 28 18 -1 -11 -13 6 13 1 4 11 11 14 14 16 15 7 5 3 2 4 4 3 2 2 6 6 5 6 7 7 7 7 5 5 7 4 5 7 3 4 6 7 5 5 10 9 0 1 6 7 8 6 7 18 22 17 8 11 25 21 11 10 8 11 14 15 12 8 10 13 12
9 3 -7 -5 -1 16 22 4 1 8 8 6 -3 -10 2 22 15 -1 4 8 9 10 10 18 11 7 21 11 1 11 5 5 13 4 -2 3 5 5 5 4 5 7 8 8 8 6 7 7 5 6 6 6 7 6 5 6 6 6 7 7 9 7 5 6 4 6 9 9 14 21 19 5 -0 10 13 9 8 8 11 12 11 10 8 9 11 11
1 -4 -15 -1 10 15 17 2 -9 -4 -9 -22 -6 12 2 5 13 5 7 8 9 15 15 17 4 -1 12 -3 -6 14 5 3 14 3 1 8 2 4 7 4 3 5 9 11 10 8 5 5 7 7 9 9 7 9 8 8 8 6 7 7 8 8 7 9 7 6 9 11 13 16 17 14 5 1 4 7 10 11 11 11 10 8 8 11 11 11
2 -3 -16 -2 13 14 12 9 5 9 5 -11 7 30 6 -12 -7 -7 -1 7 12 3 -9 1 5 0 5 1 6 19 8 6 10 3 9 12 -0 3 7 3 2 1 5 10 8 7 5 2 6 6 8 11 9 9 9 9 10 8 9 9 9 8 7 9 10 9 9 9 12 13 14 15 12 9 10 11 12 12 9 9 13 12 10 9 8 8
9 7 3 -1 3 12 9 3 5 7 11 13 17 15 9 4 -2 2 8 6 8 1 -9 3 13 9 9 17 22 16 8 4 -1 1 11 14 3 1 7 6 4 4 5 7 5 5 6 5 4 5 8 10 9 9 9 9 10 10 11 11 9 9 8 9 12 11 9 8 9 11 11 12 13 11 8 8 8 9 10 9 9 11 10 8 9 9
8 11 13 -4 -5 16 10 -3 9 21 10 4 8 -3 2 13 2 7 9 -1 11 13 1 5 16 18 11 10 2 -8 4 7 -0 4 9 14 8 0 10 9 2 5 6 8 9 5 6 6 4 6 9 9 9 10 10 9 9 9 9 10 9 8 8 9 11 11 10 8 8 9 9 9 11 9 7 7 6 6 9 9 8 9 9 7 9 10
6 3 7 2 7 12 1 -5 5 20 -0 -16 6 9 7 12 3 12 16 10 20 11 -3 5 9 4 1 6 1 -9 2 11 10 14 14 17 14 5 7 8 5 5 3 7 11 6 3 3 2 5 9 10 8 8 9 9 8 7 7 8 8 7 8 8 7 9 9 8 8 9 9 9 9 8 4 -1 -1 3 6 7 8 9 9 7 5 7
14 8 2 4 17 10 2 10 8 14 6 -10 12 20 12 16 16 21 19 12 15 8 6 13 5 4 10 12 10 0 -3 7 12 12 17 18 11 5 0 2 11 9 3 6 8 5 1 1 2 4 8 12 10 8 7 7 6 6 6 6 7 6 6 7 6 5 5 6 7 7 8 9 8 5 -1 -7 -6 2 6 7 8 8 9 10 8 7
4 12 12 -3 4 7 -7 -7 -0 13 9 -11 3 18 11 9 7 7 9 4 -4 -6 6 15 11 10 6 -1 3 6 3 9 9 0 9 15 7 9 5 -3 4 10 10 5 2 4 1 -0 4 4 6 9 10 10 6 5 5 4 6 6 6 7 6 6 6 5 4 4 5 6 6 7 8 6 2 0 1 5 8 7 7 7 7 9 8 8
-11 3 29 14 4 5 -11 -9 11 21 11 -4 2 15 16 12 6 2 11 17 1 -7 9 22 22 9 -1 3 4 4 8 11 7 2 10 14 7 12 12 0 -0 10 12 -1 -4 4 1 2 5 3 5 6 7 10 7 6 6 4 6 6 6 8 8 9 8 8 7 6 7 8 8 7 7 8 7 7 6 7 8 6 6 6 5 6 6 6
-10 -16 12 24 16 1 -12 0 17 9 0 3 5 10 16 11 8 6 8 14 5 5 15 11 10 8 6 15 8 4 23 25 12 9 11 10 8 9 6 1 1 8 10 0 -0 6 2 4 6 1 3 4 5 9 7 7 6 5 7 7 8 8 8 10 10 9 9 9 10 10 11 11 9 9 8 8 9 7 7 7 7 6 6 6 6 6
4 -4 -2 11 20 8 -4 2 6 -2 -9 -6 -3 1 7 2 3 6 2 3 5 15 20 5 9 14 -2 2 7 3 13 15 8 8 6 3 6 7 4 1 4 9 8 3 7 11 4 3 6 4 4 3 6 8 8 7 5 6 7 6 8 8 8 10 9 10 10 9 10 9 10 12 10 10 9 8 9 9 9 9 8 8 8 9 8 8
12 15 -2 -1 14 7 10 17 1 -5 -3 -4 -2 -1 4 8 11 14 9 5 6 7 4 -1 8 9 -6 2 13 4 5 11 13 15 11 5 5 9 10 4 5 9 4 4 12 8 -1 0 4 4 4 3 6 9 10 8 5 5 5 5 7 8 7 8 8 10 9 8 10 9 9 9 9 9 9 8 8 8 9 9 8 9 8 8 9 8
9 11 0 9 19 -0 11 33 16 18 29 10 3 6 8 10 6 6 9 6 3 3 6 8 5 0 7 19 9 -0 11 12 8 12 10 7 7 11 15 7 2 7 3 5 11 0 -6 2 3 1 2 2 5 9 11 10 7 5 5 5 6 7 7 8 8 9 10 10 9 9 9 8 8 9 8 9 9 8 9 8 9 9 8 8 8 8
15 13 8 8 15 2 5 22 13 22 25 -6 -6 13 8 5 -2 -9 1 8 3 7 17 15 2 -1 11 16 1 -1 12 8 4 13 11 5 5 10 17 9 -1 5 9 7 6 0 1 6 2 -0 2 2 5 9 9 9 9 6 6 5 3 4 6 7 9 10 11 11 9 8 8 6 6 7 6 7 7 7 7 7 7 8 8 8 8 9
6 9 24 13 7 3 -4 5 4 6 10 -3 2 11 2 2 1 -6 4 12 7 8 13 7 4 16 18 13 6 4 9 5 2 16 21 8 2 6 11 8 5 8 8 6 1 0 5 4 1 2 1 3 7 8 9 10 9 8 8 6 4 3 4 5 8 10 11 11 9 6 4 4 4 3 4 4 4 5 4 5 5 5 5 6 6 7
8 4 27 13 -5 -4 2 16 15 6 11 7 -7 -10 4 16 11 9 11 6 2 3 6 7 10 11 0 -6 -3 -1 9 7 -5 13 28 17 21 27 8 4 26 29 14 9 5 2 5 4 1 1 -1 4 6 5 9 10 6 7 7 7 6 4 5 6 7 8 10 9 8 6 3 2 3 2 3 3 3 4 3 3 4 3 4 4 3 4
10 -4 19 20 9 7 9 20 21 9 6 13 7 -4 3 6 -0 10 11 1 5 6 5 11 9 -1 -4 3 7 7 14 6 -6 9 15 6 22 33 11 8 38 45 27 11 -4 -12 -4 1 2 2 0 3 3 5 10 8 2 3 5 7 8 6 7 9 10 10 9 9 7 6 4 2 1 1 2 2 2 3 3 3 3 3 4 4 4 4
-4 -10 11 20 21 12 7 19 28 19 3 15 32 16 -1 -2 0 11 7 -5 2 5 2 5 3 4 12 13 7 6 10 8 3 9 8 2 6 14 23 29 25 15 8 -1 -14 -16 -5 1 1 2 4 3 1 4 8 4 -1 -0 3 8 9 10 10 11 12 12 10 10 8 6 5 3 3 2 2 3 3 3 4 4 4 4 5 5 5 5
-5 1 -2 -5 5 9 13 15 12 15 11 10 17 9 4 11 12 14 9 4 10 9 4 5 6 10 11 2 -1 3 9 8 3 4 9 12 8 5 16 16 -3 -10 -1 5 5 6 13 13 -0 -7 3 8 4 4 6 3 1 0 2 7 10 12 12 10 11 10 9 11 9 7 6 3 3 3 3 4 5 4 5 5 6 6 6 5 5 6
1 6 -3 -0 7 8 13 5 -4 11 12 -3 -2 4 8 10 10 16 14 9 8 4 2 5 6 6 6 7 9 6 6 4 1 8 13 12 9 8 9 6 4 8 11 13 13 10 15 19 4 -7 3 8 2 4 8 4 3 5 6 9 11 13 12 9 8 7 7 8 7 7 7 4 3 2 1 2 2 3 4 4 6 6 5 5 4 4
6 2 4 10 -1 -2 10 1 -3 12 4 -10 -2 6 11 14 9 5 5 5 5 6 10 11 9 8 6 7 7 2 5 9 9 12 11 6 5 7 10 12 13 13 12 10 11 11 15 16 9 6 9 3 -5 3 11 8 5 7 7 5 7 9 7 3 3 3 4 5 4 5 5 5 5 3 2 2 2 4 5 6 7 6 6 6 5 6
2 -8 3 10 1 7 13 1 6 20 15 17 21 11 11 16 2 -14 -11 2 9 10 8 3 2 5 2 2 7 7 6 9 12 12 8 6 6 5 8 12 10 9 10 7 8 14 19 17 13 13 14 11 5 5 8 8 8 7 4 2 3 5 2 -1 0 2 3 4 4 5 5 4 5 4 5 5 5 7 8 8 8 8 7 7 6 8
15 -3 -2 -3 -5 4 2 -0 12 7 -4 9 17 7 6 10 6 -1 -4 0 4 2 1 3 3 6 9 13 16 14 10 8 10 11 7 6 7 9 10 10 9 9 8 7 8 9 10 13 15 14 17 23 20 7 -3 0 8 8 5 4 2 2 2 2 4 4 4 6 6 6 7 6 6 6 6 7 7 7 7 7 7 7 7 6 6 6
17 12 20 10 -5 3 8 11 14 -0 -7 5 3 -3 1 0 -2 -2 -4 0 5 3 3 7 6 5 10 9 6 7 10 9 8 11 13 13 11 11 10 8 10 10 8 8 9 6 7 10 11 11 12 15 14 5 -4 -0 8 5 1 1 1 3 4 4 5 5 6 7 6 8 9 8 8 8 7 7 7 6 6 7 7 7 7 7 7 7
8 -6 16 23 0 -1 7 6 7 6 6 4 -5 -1 13 11 4 6 8 6 8 10 9 4 0 2 5 7 10 11 8 9 13 15 15 13 11 11 11 9 8 7 7 7 7 8 11 9 8 10 9 5 5 4 2 4 6 3 2 3 4 6 7 7 7 7 6 7 7 7 7 7 8 7 7 7 7 7 8 8 8 9 9 9 9 9
13 -17 -5 21 15 6 3 -3 0 8 7 1 -3 0 3 -1 -2 7 10 4 3 9 7 3 6 9 10 13 16 13 10 14 17 15 13 12 9 9 9 8 7 8 10 11 10 11 11 7 7 9 7 5 4 4 5 5 5 6 7 6 7 8 9 9 9 8 7 7 7 6 6 6 6 7 8 8 8 9 8 8 9 9 9 10 10 10
10 -15 -14 10 21 15 7 4 2 2 3 2 2 4 3 -1 -2 0 -0 -1 4 4 0 6 13 11 9 11 9 8 13 16 13 10 10 8 6 11 14 13 12 12 12 9 7 7 7 5 5 6 6 6 6 5 6 5 6 6 5 6 8 9 8 7 7 7 8 8 8 8 8 8 8 8 9 9 9 10 10 10 10 10 10 11 11 12
6 -7 -7 7 20 16 5 5 7 6 8 6 5 9 8 2 3 8 5 3 11 16 12 10 11 9 8 8 7 10 13 10 8 8 8 8 11 14 14 9 6 7 8 8 6 6 7 8 8 8 9 9 8 8 9 9 9 9 8 9 9 8 8 8 7 8 8 8 8 9 8 9 10 10 10 10 11 11 12 12 12 12 13 12 12 13
10 2 -6 -11 -5 -1 -3 2 12 16 16 10 5 6 1 -4 5 15 12 6 12 23 18 7 6 9 9 7 9 12 10 8 10 11 9 10 11 9 6 6 7 9 10 10 8 7 8 10 12 12 12 11 10 9 10 10 11 12 12 11 11 11 11 10 10 10 10 10 11 10 10 11 11 11 12 12 12 12 12 12 12 12 11 11 11 11
15 12 7 5 4 6 5 5 7 8 8 7 7 6 3 4 8 7 5 7 12 17 13 6 8 10 9 11 12 10 10 12 12 10 8 9 10 7 4 4 5 6 6 5 4 5 8 11 12 11 9 6 5 7 11 11 11 12 11 10 10 11 10 10 11 11 11 11 11 11 11 11 10 11 10 9 9 8 8 8 7 7 7 8 8 8
14 7 5 16 16 8 6 7 6 6 8 6 3 0 -1 4 9 6 5 7 9 9 8 8 12 13 11 13 14 12 12 11 7 6 6 6 5 1 0 4 6 5 6 6 5 7 9 9 7 3 0 2 6 9 10 9 9 9 8 8 9 8 8 9 9 8 9 9 9 8 8 8 7 7 7 7 7 6 7 7 7 6 7 7 7 7
17 6 -7 -6 -9 -13 -3 5 5 6 5 -0 -1 6 9 8 9 8 6 8 9 9 9 10 14 17 16 15 13 10 6 5 5 6 4 4 5 4 6 10 9 6 8 9 7 6 5 3 2 1 2 6 9 8 8 8 8 8 7 7 8 7 7 7 7 8 9 9 9 9 9 9 9 9 9 10 10 10 10 10 11 11 11 11 10 10
8 8 6 5 -0 -1 4 6 4 3 3 2 6 11 8 5 10 14 13 12 9 6 6 10 14 17 16 12 8 4 4 7 9 4 2 7 11 10 9 8 6 6 8 7 5 3 3 4 7 7 7 8 8 7 8 7 6 6 7 7 8 8 9 10 12 14 14 15 16 16 16 17 18 18 18 18 18 18 17 17 17 16 16 15 15 15
1 1 5 8 8 10 13 11 8 6 5 6 6 7 6 8 15 17 10 4 2 5 12 16 15 11 7 5 5 5 6 8 6 1 4 10 10 6 5 6 6 5 4 5 7 6 6 8 9 8 6 7 7 7 7 6 7 9 10 11 13 14 16 19 21 22 23 23 24 24 25 25 25 26 26 25 25 25 23 23 22 21 20 20 20 19
-1 -3 -1 2 4 6 9 9 7 7 10 12 11 11 12 11 7 5 5 5 8 13 14 10 8 5 3 4 6 6 5 5 5 5 7 9 7 7 7 6 6 4 4 8 10 7 6 8 8 6 5 6 8 9 10 11 13 15 16 18 20 22 23 24 24 23 23 22 21 22 22 22 22 23 23 23 23 23 22 22 22 21 21 21 20 20
1 4 6 3 1 0 5 8 8 10 12 10 8 6 7 8 7 7 9 11 12 12 7 4 8 9 7 5 4 4 5 6 7 8 8 8 8 8 6 6 7 7 6 8 9 6 5 7 7 7 8 10 14 16 16 16 18 21 22 22 23 23 21 20 17 16 15 14 14 14 13 14 15 16 16 17 18 18 18 18 18 19 20 19 19 20
11 15 18 17 17 15 15 11 4 5 7 4 5 8 9 12 12 9 9 9 7 6 3 4 7 5 2 2 4 7 10 10 10 10 7 7 7 6 6 7 7 7 6 7 8 6 6 10 12 12 13 15 19 21 20 20 22 22 21 19 18 16 14 12 12 12 13 13 13 14 14 15 14 12 12 14 15 16 17 18 18 19 19 19 19 19
19 20 20 23 27 25 24 19 8 7 11 11 9 10 11 12 9 8 10 8 3 3 4 5 5 1 1 5 7 10 11 9 9 8 5 5 7 7 8 8 7 7 7 7 9 9 9 15 18 17 17 21 24 24 20 19 19 18 15 14 13 11 12 13 14 14 14 14 13 15 19 22 21 16 12 11 12 15 17 16 15 14 14 15 16 16
16 15 13 15 15 9 10 13 6 3 9 13 10 9 10 11 9 8 8 4 2 5 6 5 5 4 7 10 10 9 10 7 7 7 6 8 9 7 7 7 6 7 8 10 12 12 14 20 23 22 22 24 24 20 15 14 14 13 13 13 13 14 15 15 15 14 13 11 10 12 20 29 30 24 16 11 11 14 15 13 11 12 13 15 16 15
9 13 14 11 9 4 2 4 3 0 4 8 8 9 10 9 6 4 4 3 5 6 5 6 8 9 10 10 7 7 7 7 8 9 8 8 8 7 7 6 7 10 12 14 16 16 20 27 27 21 17 16 15 13 12 13 14 14 15 16 16 16 16 14 13 12 11 12 12 12 17 25 29 27 21 16 13 13 14 13 12 14 14 14 15 15
6 11 9 7 12 11 6 6 7 7 10 11 10 10 9 6 4 4 5 5 5 5 7 9 11 10 9 8 7 8 9 10 9 8 8 8 7 6 6 7 11 14 16 19 23 25 26 25 19 13 11 11 12 14 16 17 18 17 17 16 15 15 14 13 12 11 13 16 16 14 15 18 21 23 21 18 16 14 14 14 15 15 14 13 15 15
7 6 3 6 10 6 1 5 7 9 12 11 7 6 6 5 6 6 6 6 7 7 9 10 9 9 9 9 10 10 9 9 8 7 8 7 6 7 9 13 17 19 20 25 27 23 18 15 11 10 12 14 16 18 18 17 16 14 13 14 14 14 12 12 13 14 16 16 15 14 14 14 15 17 18 18 17 16 15 16 16 16 15 16 16 16
10 8 5 8 11 8 9 12 12 10 10 7 5 6 6 6 7 6 6 8 9 9 9 8 8 10 10 10 10 8 7 8 7 7 7 7 8 11 14 19 23 22 22 25 22 13 9 10 10 11 15 19 21 19 14 13 12 12 13 13 12 12 12 13 15 15 14 12 12 12 12 11 12 12 12 13 13 13 12 12 12 12 13 13 13 13
16 15 13 16 18 15 14 12 9 8 5 4 6 7 6 5 6 7 9 10 9 8 8 9 11 13 11 9 8 7 8 9 6 6 8 9 11 16 20 23 25 20 16 18 15 7 7 11 11 11 14 18 21 19 14 13 13 12 12 12 11 13 14 13 13 13 14 14 15 14 14 15 15 15 15 15 16 16 16 15 15 14 13 12 12 11
21 17 16 17 14 9 7 6 6 6 5 6 8 7 7 8 8 9 9 8 8 9 11 12 12 11 8 8 8 8 8 8 7 8 11 13 16 21 23 22 19 14 11 13 11 7 9 12 10 9 9 12 15 14 12 11 11 11 12 13 13 13 13 14 16 18 18 18 17 17 18 19 19 19 20 20 20 21 22 22 23 23 23 23 22 19
13 9 8 8 5 5 6 6 6 6 6 7 7 7 7 8 8 8 8 9 12 14 13 11 9 7 8 9 9 7 7 9 10 11 13 16 21 24 20 15 14 12 10 12 10 7 10 11 9 8 8 8 9 10 10 11 12 13 13 13 13 14 17 19 19 17 16 15 15 16 18 18 17 17 17 17 18 19 20 20 21 23 25 28 29 29
4 4 4 5 6 7 7 7 7 6 6 7 7 7 7 7 7 9 12 15 16 13 9 8 7 8 10 9 7 7 10 12 13 14 16 20 24 22 13 9 12 11 9 11 11 10 11 10 8 7 8 8 10 13 14 14 13 13 14 16 16 17 17 16 13 11 12 13 13 14 14 14 14 15 15 15 16 16 16 16 15 16 18 19 22 25
5 5 5 7 8 8 7 7 5 4 5 7 7 6 7 9 13 16 16 15 11 8 8 9 8 9 9 8 7 9 12 13 14 16 19 21 21 15 7 8 13 12 10 11 13 13 11 8 6 8 8 9 13 14 13 12 12 14 17 17 15 14 11 10 10 11 12 12 11 11 11 11 11 12 12 12 12 12 12 12 11 11 11 11 12 14
6 6 7 7 6 5 5 5 5 6 7 7 6 8 12 15 18 17 13 9 6 7 9 10 9 8 8 9 10 12 13 15 16 19 21 20 16 10 7 10 14 14 12 13 14 14 10 6 6 8 9 11 14 12 10 12 15 15 14 12 11 10 10 11 12 11 11 10 9 9 10 10 9 10 9 8 8 8 8 9 9 8 8 8 9 10
Height
5951 5952 5953 5953 5957 5959 5958 5957 5955 5953 5953 5954 5955 5955 5958 5960 5955 5946 5940 5939 5941 5940 5938 5937 5935 5932 5928 5928 5931 5933 5932 5927 5924 5925 5927 5927 5923 5920 5919 5920 5920 5919 5918 5917 5916 5916 5916 5916 5914 5912 5910 5907 5905 5903 5902 5902 5902 5903 5904 5901 5896 5895 5896 5897 5897 5896 5893 5892 5891 5889 5888 5888 5887 5887 5887 5887 5886 5885 5884 5882 5881 5881 5881 5880 5878 5878
5950 5952 5953 5953 5959 5958 5954 5954 5954 5953 5953 5953 5955 5955 5958 5961 5956 5948 5944 5942 5942 5941 5940 5937 5935 5933 5930 5929 5930 5932 5933 5930 5926 5925 5925 5927 5926 5922 5920 5920 5920 5919 5918 5918 5917 5916 5915 5914 5913 5912 5911 5909 5906 5904 5903 5901 5899 5899 5900 5898 5894 5892 5892 5893 5896 5896 5895 5893 5892 5890 5888 5888 5888 5888 5888 5886 5885 5884 5883 5881 5881 5880 5880 5879 5878 5878
5949 5952 5952 5955 5958 5955 5952 5953 5953 5953 5953 5953 5955 5956 5958 5959 5954 5949 5947 5945 5943 5942 5940 5938 5936 5934 5930 5929 5929 5931 5933 5931 5928 5927 5926 5926 5927 5925 5922 5920 5919 5919 5918 5919 5918 5916 5914 5913 5912 5911 5911 5910 5908 5907 5905 5902 5901 5900 5899 5898 5895 5891 5888 5888 5889 5892 5894 5893 5892 5892 5892 5891 5891 5890 5887 5884 5883 5882 5881 5881 5881 5880 5880 5878 5877 5877
5950 5951 5952 5956 5956 5952 5952 5953 5952 5953 5954 5954 5955 5956 5959 5957 5953 5950 5945 5942 5942 5941 5939 5939 5938 5934 5932 5930 5928 5930 5932 5931 5928 5928 5927 5925 5925 5924 5922 5920 5918 5917 5917 5918 5918 5916 5914 5912 5911 5910 5909 5908 5908 5907 5906 5904 5903 5901 5900 5899 5897 5895 5891 5888 5887 5888 5890 5890 5891 5892 5892 5891 5890 5887 5883 5882 5882 5882 5881 5881 5881 5880 5878 5877 5877 5877
5949 5951 5951 5954 5952 5950 5952 5951 5951 5953 5955 5957 5957 5957 5957 5954 5951 5950 5946 5942 5941 5939 5936 5937 5938 5933 5932 5931 5928 5929 5931 5930 5929 5928 5926 5924 5922 5922 5921 5918 5916 5916 5916 5917 5917 5916 5914 5912 5910 5909 5908 5907 5906 5906 5905 5904 5903 5901 5900 5899 5898 5896 5894 5892 5890 5889 5889 5888 5888 5888 5888 5887 5885 5883 5881 5882 5883 5882 5882 5881 5880 5880 5878 5878 5878 5877
5947 5949 5951 5952 5951 5951 5951 5951 5952 5953 5955 5958 5958 5956 5954 5951 5950 5949 5948 5947 5946 5944 5938 5935 5937 5935 5932 5931 5930 5930 5931 5930 5928 5927 5926 5923 5921 5921 5921 5918 5916 5915 5915 5916 5916 5915 5913 5911 5909 5909 5908 5907 5906 5905 5904 5903 5902 5901 5900 5899 5897 5896 5894 5893 5892 5891 5890 5889 5888 5887 5887 5886 5885 5884 5883 5884 5883 5883 5882 5881 5880 5880 5879 5878 5878 5877
5946 5947 5949 5951 5950 5950 5950 5951 5953 5953 5954 5957 5955 5952 5950 5949 5949 5947 5947 5947 5947 5948 5944 5937 5937 5935 5930 5928 5929 5929 5930 5930 5927 5926 5926 5924 5921 5921 5921 5919 5916 5915 5915 5914 5914 5913 5912 5910 5909 5909 5908 5907 5905 5905 5904 5902 5901 5900 5899 5898 5897 5896 5895 5893 5892 5892 5891 5890 5890 5889 5888 5887 5886 5885 5885 5884 5884 5883 5882 5881 5880 5880 5879 5878 5878 5877
5945 5946 5948 5949 5948 5949 5949 5950 5953 5952 5954 5955 5951 5948 5948 5947 5947 5946 5945 5945 5945 5947 5947 5942 5938 5936 5931 5928 5927 5925 5925 5926 5925 5926 5926 5924 5922 5921 5921 5919 5916 5915 5915 5913 5911 5911 5910 5909 5908 5908 5907 5906 5905 5904 5903 5902 5901 5900 5899 5898 5896 5896 5895 5894 5893 5892 5891 5891 5890 5889 5888 5887 5886 5886 5885 5884 5883 5883 5882 5881 5880 5880 5880 5879 5879 5878
5944 5945 5947 5948 5948 5948 5949 5951 5953 5950 5951 5952 5948 5945 5947 5946 5944 5944 5943 5944 5945 5944 5944 5941 5938 5936 5932 5929 5927 5923 5921 5922 5924 5926 5925 5922 5921 5922 5922 5920 5915 5914 5915 5911 5908 5907 5907 5906 5907 5906 5906 5906 5905 5904 5903 5901 5900 5899 5898 5897 5896 5895 5894 5893 5892 5891 5891 5890 5889 5889 5888 5887 5886 5885 5884 5883 5883 5882 5881 5881 5880 5879 5879 5878 5878 5877
5944 5945 5946 5947 5948 5947 5949 5952 5951 5948 5948 5948 5945 5945 5945 5943 5943 5944 5944 5944 5943 5941 5941 5940 5937 5934 5931 5928 5928 5925 5920 5920 5922 5924 5923 5921 5921 5922 5922 5919 5913 5911 5912 5908 5903 5903 5904 5904 5905 5905 5905 5905 5904 5903 5902 5901 5900 5898 5897 5896 5895 5894 5893 5893 5892 5891 5890 5889 5889 5888 5887 5886 5885 5885 5884 5883 5882 5881 5881 5880 5879 5878 5877 5877 5876 5876
5943 5943 5943 5944 5946 5946 5948 5949 5947 5945 5947 5946 5944 5945 5944 5943 5946 5946 5944 5942 5941 5939 5939 5939 5938 5936 5932 5927 5926 5925 5920 5918 5920 5921 5920 5919 5919 5920 5921 5917 5910 5907 5908 5906 5901 5901 5902 5902 5903 5904 5904 5904 5903 5902 5901 5900 5899 5897 5896 5895 5894 5894 5892 5892 5891 5890 5889 5888 5887 5887 5886 5885 5884 5884 5883 5882 5881 5881 5880 5879 5878 5877 5876 5875 5875 5874
5941 5941 5941 5941 5943 5943 5943 5945 5944 5944 5945 5944 5944 5944 5943 5945 5946 5945 5943 5942 5941 5939 5939 5939 5938 5937 5932 5926 5923 5922 5920 5920 5920 5921 5919 5917 5917 5918 5919 5914 5908 5906 5907 5904 5901 5901 5901 5900 5901 5903 5903 5902 5901 5901 5900 5899 5898 5897 5896 5895 5894 5893 5891 5890 5889 5888 5887 5886 5886 5885 5884 5884 5883 5882 5881 5881 5880 5879 5879 5878 5877 5876 5875 5874 5874 5873
5940 5941 5941 5941 5941 5942 5942 5943 5943 5944 5944 5943 5944 5944 5945 5946 5945 5944 5944 5944 5941 5939 5940 5940 5937 5934 5930 5926 5922 5919 5919 5921 5922 5922 5919 5916 5916 5917 5916 5912 5908 5908 5908 5905 5902 5902 5900 5898 5900 5901 5902 5901 5900 5899 5898 5897 5897 5896 5895 5894 5893 5891 5890 5889 5888 5887 5886 5885 5884 5883 5882 5882 5881 5881 5880 5879 5878 5878 5877 5877 5876 5875 5874 5873 5873 5872
5940 5940 5940 5941 5941 5941 5942 5942 5942 5944 5945 5946 5948 5949 5948 5947 5945 5944 5944 5943 5941 5940 5941 5939 5934 5931 5929 5927 5924 5920 5917 5917 5920 5922 5919 5917 5917 5916 5914 5912 5910 5909 5907 5905 5903 5901 5897 5896 5898 5900 5900 5900 5899 5898 5897 5896 5895 5895 5894 5893 5891 5890 5889 5888 5886 5885 5884 5883 5882 5881 5881 5880 5879 5879 5878 5877 5877 5876 5875 5875 5874 5874 5873 5872 5871 5870
5942 5942 5940 5941 5942 5940 5940 5940 5941 5941 5943 5945 5948 5949 5950 5947 5944 5944 5943 5941 5939 5938 5938 5936 5932 5930 5928 5927 5926 5923 5919 5915 5917 5922 5920 5916 5915 5913 5911 5911 5909 5908 5906 5903 5902 5899 5895 5895 5898 5899 5899 5899 5898 5897 5896 5895 5894 5893 5892 5891 5890 5889 5888 5886 5885 5884 5883 5882 5881 5880 5879 5878 5877 5877 5876 5876 5875 5874 5873 5873 5872 5872 5871 5870 5869 5869
5943 5943 5942 5941 5942 5942 5939 5939 5940 5940 5942 5944 5945 5947 5948 5944 5942 5942 5940 5938 5937 5936 5935 5933 5929 5927 5926 5925 5924 5922 5919 5913 5914 5919 5918 5913 5910 5908 5908 5908 5907 5906 5903 5901 5900 5897 5894 5896 5898 5898 5897 5897 5897 5896 5895 5894 5893 5892 5891 5890 5889 5887 5886 5885 5884 5883 5881 5880 5879 5878 5877 5876 5876 5875 5874 5874 5873 5873 5872 5871 5870 5870 5869 5868 5868 5867
5944 5944 5943 5941 5940 5941 5941 5941 5941 5940 5942 5943 5944 5946 5944 5939 5939 5941 5939 5936 5936 5935 5934 5932 5929 5923 5920 5920 5919 5917 5915 5912 5913 5916 5913 5908 5906 5905 5905 5906 5904 5903 5901 5901 5899 5897 5897 5898 5898 5896 5896 5895 5895 5895 5893 5892 5891 5890 5889 5888 5887 5886 5885 5883 5882 5881 5880 5879 5878 5876 5876 5875 5874 5873 5872 5872 5871 5871 5870 5870 5869 5868 5867 5866 5866 5865
5941 5943 5946 5943 5940 5940 5939 5939 5940 5939 5939 5940 5941 5942 5940 5937 5939 5939 5937 5935 5935 5933 5933 5933 5928 5920 5915 5916 5918 5917 5915 5914 5914 5914 5911 5908 5907 5905 5905 5905 5903 5902 5902 5902 5902 5900 5900 5899 5896 5895 5895 5894 5893 5892 5891 5890 5889 5888 5887 5886 5885 5884 5882 5881 5880 5879 5878 5877 5875 5874 5873 5873 5872 5871 5870 5870 5869 5869 5868 5867 5867 5866 5865 5864 5864 5863
5939 5941 5944 5943 5942 5941 5937 5936 5937 5936 5936 5937 5938 5937 5936 5937 5938 5937 5935 5933 5931 5931 5931 5931 5927 5920 5917 5917 5916 5916 5916 5915 5913 5912 5911 5909 5907 5906 5905 5904 5902 5902 5902 5902 5901 5900 5899 5897 5895 5894 5893 5892 5891 5890 5889 5888 5887 5886 5885 5883 5882 5881 5880 5879 5878 5877 5875 5874 5873 5872 5871 5870 5870 5869 5868 5867 5866 5866 5865 5865 5864 5863 5863 5862 5861 5860
5939 5941 5941 5940 5941 5941 5938 5935 5936 5936 5936 5935 5935 5936 5935 5936 5935 5934 5933 5932 5930 5930 5930 5928 5924 5919 5919 5917 5913 5911 5912 5912 5912 5911 5909 5907 5905 5903 5902 5901 5900 5901 5901 5900 5899 5897 5895 5894 5893 5892 5891 5890 5889 5888 5887 5886 5884 5883 5882 5881 5880 5879 5878 5877 5875 5874 5873 5872 5871 5870 5869 5868 5867 5866 5865 5864 5864 5863 5862 5862 5861 5860 5860 5859 5858 5857
5937 5939 5939 5938 5938 5939 5938 5937 5938 5941 5940 5936 5935 5937 5937 5936 5934 5932 5931 5932 5931 5929 5927 5925 5920 5916 5916 5915 5912 5909 5907 5908 5908 5907 5906 5905 5903 5901 5900 5899 5898 5898 5897 5897 5896 5894 5892 5891 5890 5889 5889 5887 5886 5885 5884 5883 5882 5881 5880 5878 5877 5876 5875 5874 5873 5871 5870 5870 5869 5868 5867 5866 5865 5863 5862 5861 5860 5860 5859 5858 5857 5857 5856 5855 5855 5854
5935 5937 5938 5937 5937 5938 5938 5938 5939 5940 5939 5936 5935 5936 5936 5935 5933 5930 5930 5930 5928 5927 5926 5922 5916 5913 5914 5913 5911 5908 5906 5906 5905 5904 5904 5902 5901 5899 5898 5897 5896 5894 5893 5893 5891 5890 5889 5888 5888 5888 5887 5886 5884 5882 5881 5880 5879 5878 5877 5875 5874 5873 5872 5871 5870 5869 5868 5867 5866 5865 5864 5863 5861 5860 5859 5858 5857 5856 5855 5854 5853 5853 5852 5851 5851 5850
5934 5934 5935 5937 5939 5937 5935 5935 5935 5934 5933 5933 5933 5933 5934 5934 5932 5929 5928 5926 5924 5924 5924 5919 5913 5912 5913 5912 5910 5907 5906 5905 5903 5902 5902 5900 5899 5897 5896 5895 5893 5892 5891 5890 5888 5887 5886 5885 5885 5885 5884 5883 5881 5879 5878 5877 5876 5875 5874 5872 5871 5870 5869 5868 5867 5866 5865 5863 5862 5861 5860 5859 5857 5856 5855 5854 5853 5852 5850 5850 5849 5848 5848 5847 5846 5845
5931 5931 5932 5936 5938 5936 5933 5932 5932 5931 5930 5930 5931 5932 5932 5931 5929 5927 5926 5924 5922 5922 5919 5914 5911 5911 5911 5910 5908 5906 5905 5904 5903 5901 5900 5899 5897 5895 5894 5893 5891 5890 5889 5887 5886 5885 5884 5883 5883 5881 5880 5879 5878 5877 5876 5875 5874 5873 5871 5869 5868 5866 5865 5864 5863 5862 5861 5860 5859 5857 5856 5854 5853 5852 5851 5849 5848 5847 5846 5845 5844 5843 5842 5842 5841 5841
5930 5931 5931 5933 5936 5935 5933 5931 5930 5930 5929 5929 5931 5932 5930 5929 5927 5925 5924 5922 5920 5918 5913 5910 5910 5909 5908 5908 5907 5906 5903 5901 5901 5900 5898 5897 5895 5893 5892 5890 5889 5888 5886 5884 5883 5883 5882 5881 5879 5877 5876 5875 5874 5874 5873 5871 5871 5869 5868 5866 5865 5863 5861 5860 5859 5857 5856 5855 5854 5852 5851 5849 5848 5847 5846 5845 5844 5842 5841 5840 5839 5838 5837 5836 5836 5835
5927 5930 5930 5931 5934 5935 5932 5930 5928 5927 5927 5928 5929 5929 5927 5926 5925 5923 5922 5919 5917 5914 5910 5909 5909 5907 5906 5906 5904 5903 5901 5899 5898 5897 5896 5895 5893 5891 5889 5887 5886 5885 5884 5882 5881 5881 5879 5878 5876 5875 5874 5873 5872 5870 5869 5868 5866 5865 5864 5862 5861 5859 5857 5855 5854 5852 5850 5849 5848 5846 5845 5844 5842 5841 5840 5839 5838 5837 5836 5834 5833 5832 5831 5830 5829 5829
5925 5928 5929 5929 5929 5929 5928 5927 5926 5926 5926 5927 5927 5926 5925 5923 5921 5919 5918 5916 5913 5911 5908 5906 5906 5904 5904 5904 5901 5899 5899 5897 5896 5895 5894 5892 5891 5889 5887 5885 5884 5883 5882 5880 5879 5878 5876 5874 5873 5872 5870 5870 5869 5867 5865 5863 5862 5861 5859 5858 5856 5854 5853 5851 5849 5847 5845 5844 5842 5841 5839 5838 5836 5835 5834 5833 5832 5831 5830 5828 5827 5826 5825 5824 5823 5822
5923 5926 5928 5927 5926 5926 5926 5926 5925 5925 5924 5925 5925 5924 5922 5920 5919 5918 5915 5912 5910 5908 5905 5903 5903 5902 5901 5900 5898 5897 5896 5895 5894 5893 5892 5890 5888 5886 5884 5883 5881 5880 5879 5878 5876 5874 5872 5870 5869 5868 5867 5866 5865 5863 5861 5860 5858 5856 5854 5852 5851 5849 5848 5846 5844 5842 5841 5839 5838 5836 5834 5832 5831 5829 5827 5826 5825 5824 5823 5822 5821 5820 5819 5818 5816 5816
5922 5924 5927 5927 5924 5925 5925 5924 5923 5922 5922 5922 5921 5920 5919 5917 5916 5915 5912 5908 5906 5905 5904 5901 5900 5900 5898 5896 5894 5892 5891 5890 5889 5888 5887 5885 5884 5882 5880 5879 5878 5876 5876 5875 5873 5871 5869 5867 5865 5864 5864 5863 5861 5859 5857 5855 5853 5851 5849 5847 5845 5844 5842 5841 5839 5837 5835 5834 5832 5830 5829 5827 5825 5824 5822 5820 5819 5817 5816 5815 5814 5813 5812 5811 5810 5809
5920 5922 5924 5923 5921 5922 5922 5921 5920 5920 5920 5920 5918 5917 5916 5914 5913 5912 5909 5906 5904 5902 5900 5897 5896 5896 5895 5893 5891 5889 5887 5886 5885 5884 5883 5881 5880 5879 5876 5875 5874 5873 5871 5870 5869 5867 5866 5864 5863 5862 5860 5859 5857 5855 5853 5851 5848 5846 5844 5842 5840 5839 5837 5835 5833 5831 5829 5828 5826 5824 5823 5821 5819 5818 5816 5815 5813 5811 5810 5809 5808 5807 5806 5805 5803 5802
5918 5920 5919 5918 5918 5919 5920 5920 5919 5918 5919 5918 5914 5913 5913 5911 5911 5911 5907 5903 5902 5901 5899 5896 5895 5895 5894 5893 5890 5888 5886 5885 5884 5882 5881 5879 5878 5876 5874 5872 5870 5868 5867 5866 5865 5864 5862 5861 5860 5858 5856 5854 5852 5850 5848 5846 5844 5842 5840 5838 5835 5834 5832 5830 5828 5825 5823 5822 5820 5818 5817 5815 5813 5812 5810 5808 5807 5805 5804 5803 5802 5800 5800 5798 5797 5796
5917 5918 5915 5915 5916 5917 5917 5918 5917 5917 5917 5914 5911 5911 5911 5909 5909 5909 5904 5899 5900 5901 5899 5896 5894 5893 5892 5891 5889 5886 5885 5884 5883 5882 5880 5878 5876 5874 5872 5870 5867 5865 5863 5862 5861 5859 5857 5855 5854 5852 5850 5848 5846 5845 5843 5840 5838 5836 5834 5832 5830 5828 5826 5824 5822 5820 5818 5815 5814 5812 5810 5808 5807 5805 5803 5802 5800 5799 5797 5797 5795 5794 5793 5792 5791 5789
5914 5915 5915 5914 5914 5914 5915 5915 5915 5915 5913 5910 5908 5909 5908 5906 5907 5906 5900 5896 5898 5899 5897 5895 5894 5893 5890 5888 5886 5885 5884 5882 5880 5879 5878 5876 5873 5871 5869 5867 5865 5863 5860 5858 5856 5854 5852 5850 5848 5845 5844 5842 5840 5838 5836 5834 5832 5830 5828 5825 5823 5821 5819 5817 5815 5813 5811 5809 5807 5805 5803 5801 5799 5798 5796 5794 5793 5791 5790 5789 5788 5787 5786 5785 5784 5783
5911 5913 5913 5912 5911 5911 5913 5913 5912 5911 5909 5907 5907 5908 5906 5904 5903 5901 5897 5895 5896 5896 5895 5893 5893 5891 5889 5886 5884 5883 5882 5880 5878 5877 5875 5874 5871 5869 5867 5865 5863 5861 5858 5856 5853 5850 5848 5846 5843 5841 5838 5836 5834 5832 5830 5828 5826 5823 5821 5819 5816 5814 5812 5810 5808 5806 5804 5801 5799 5797 5795 5793 5792 5790 5789 5786 5785 5783 5782 5781 5780 5779 5778 5777 5776 5775
5910 5910 5910 5910 5910 5909 5910 5910 5909 5908 5906 5904 5906 5907 5906 5903 5899 5897 5895 5895 5895 5894 5892 5891 5890 5889 5887 5885 5883 5881 5880 5878 5876 5874 5873 5871 5869 5866 5863 5861 5860 5858 5856 5854 5852 5849 5846 5843 5840 5838 5834 5832 5830 5827 5825 5822 5820 5817 5815 5812 5810 5807 5805 5803 5801 5799 5796 5794 5792 5790 5788 5786 5784 5782 5780 5778 5777 5775 5774 5773 5772 5770 5770 5769 5768 5768
5908 5908 5908 5908 5907 5907 5908 5908 5906 5904 5902 5901 5902 5903 5903 5901 5897 5893 5892 5893 5893 5892 5890 5889 5887 5886 5884 5883 5881 5879 5877 5875 5873 5871 5870 5868 5866 5864 5861 5859 5857 5855 5853 5852 5850 5847 5844 5841 5838 5835 5832 5828 5826 5823 5819 5817 5815 5811 5809 5806 5804 5801 5799 5797 5794 5792 5790 5787 5785 5783 5781 5779 5777 5775 5773 5771 5769 5768 5766 5765 5764 5763 5762 5762 5761 5760
5905 5906 5906 5905 5905 5905 5906 5905 5903 5900 5899 5898 5899 5900 5899 5898 5895 5892 5891 5890 5888 5888 5887 5886 5885 5884 5882 5881 5879 5876 5874 5872 5870 5868 5867 5865 5864 5862 5859 5856 5854 5851 5849 5847 5845 5841 5839 5838 5834 5831 5829 5825 5822 5819 5815 5812 5809 5806 5803 5801 5798 5796 5793 5791 5788 5786 5783 5781 5779 5777 5775 5773 5771 5769 5766 5765 5763 5761 5760 5758 5757 5756 5756 5755 5754 5753
5901 5903 5903 5902 5902 5903 5903 5903 5900 5897 5896 5896 5896 5897 5897 5896 5893 5890 5889 5888 5885 5883 5882 5882 5882 5881 5879 5877 5875 5873 5871 5869 5867 5865 5863 5861 5860 5858 5856 5854 5851 5848 5845 5843 5841 5836 5834 5833 5829 5825 5824 5821 5817 5813 5810 5806 5804 5801 5798 5796 5793 5791 5789 5786 5783 5781 5779 5776 5774 5772 5770 5768 5766 5764 5761 5760 5758 5756 5755 5753 5752 5751 5750 5749 5748 5747
5900 5900 5900 5900 5900 5900 5901 5900 5897 5894 5894 5895 5895 5894 5894 5894 5892 5889 5887 5885 5884 5882 5880 5878 5877 5876 5874 5873 5872 5870 5868 5865 5864 5862 5860 5858 5856 5854 5852 5850 5848 5845 5841 5840 5837 5832 5829 5828 5824 5819 5817 5815 5812 5808 5804 5801 5799 5797 5794 5792 5789 5787 5785 5782 5780 5777 5775 5772 5770 5767 5765 5763 5761 5759 5757 5755 5754 5752 5750 5748 5747 5746 5745 5744 5743 5742
5898 5898 5898 5898 5898 5899 5899 5897 5893 5891 5893 5894 5893 5892 5891 5891 5889 5887 5885 5883 5882 5881 5880 5878 5876 5873 5872 5870 5869 5868 5866 5863 5861 5859 5856 5854 5853 5850 5848 5845 5843 5841 5838 5836 5832 5827 5824 5823 5819 5813 5810 5809 5808 5805 5800 5797 5795 5793 5790 5788 5786 5783 5781 5778 5776 5773 5771 5768 5766 5763 5760 5758 5756 5754 5753 5751 5750 5748 5747 5745 5743 5742 5741 5740 5739 5737
5896 5896 5897 5896 5897 5899 5898 5894 5890 5890 5891 5891 5890 5890 5889 5887 5886 5885 5883 5882 5880 5880 5878 5877 5875 5873 5870 5868 5866 5864 5863 5860 5859 5856 5852 5850 5849 5847 5844 5841 5838 5836 5833 5830 5827 5822 5819 5817 5814 5809 5806 5804 5803 5801 5797 5794 5792 5790 5787 5785 5782 5780 5777 5775 5772 5770 5767 5765 5762 5759 5756 5753 5751 5749 5748 5747 5746 5745 5744 5742 5740 5739 5737 5736 5735 5733
5894 5895 5894 5893 5895 5895 5892 5889 5888 5890 5890 5889 5889 5888 5887 5885 5883 5882 5881 5879 5878 5877 5876 5874 5872 5870 5868 5865 5863 5861 5859 5857 5856 5854 5850 5847 5845 5843 5840 5837 5834 5831 5828 5825 5822 5818 5815 5812 5810 5806 5803 5801 5799 5796 5794 5791 5789 5786 5784 5781 5779 5776 5774 5772 5769 5767 5764 5762 5759 5756 5753 5750 5747 5746 5745 5744 5742 5741 5740 5739 5737 5736 5734 5732 5731 5729
5893 5892 5891 5891 5892 5891 5887 5886 5888 5889 5889 5888 5887 5886 5886 5884 5881 5880 5878 5877 5875 5874 5872 5871 5869 5866 5864 5861 5859 5858 5856 5854 5852 5851 5848 5845 5842 5839 5836 5833 5830 5827 5823 5820 5817 5814 5811 5809 5807 5803 5800 5798 5796 5793 5790 5788 5785 5783 5780 5778 5776 5773 5771 5769 5767 5764 5761 5759 5756 5753 5750 5748 5745 5743 5742 5740 5739 5738 5737 5735 5734 5732 5731 5729 5727 5726
5890 5889 5888 5889 5891 5888 5886 5887 5886 5885 5886 5886 5884 5883 5883 5881 5879 5877 5875 5873 5872 5870 5868 5867 5866 5864 5861 5858 5855 5854 5852 5849 5847 5845 5844 5841 5837 5834 5832 5829 5826 5823 5819 5816 5813 5810 5808 5806 5803 5801 5798 5795 5792 5789 5787 5784 5782 5780 5777 5775 5773 5771 5768 5766 5763 5761 5758 5756 5753 5751 5748 5745 5743 5741 5739 5738 5736 5735 5733 5732 5730 5729 5727 5725 5724 5722
5887 5887 5885 5886 5887 5885 5885 5885 5884 5883 5883 5883 5882 5880 5879 5878 5876 5874 5872 5870 5869 5867 5865 5863 5862 5861 5859 5856 5853 5850 5848 5846 5843 5840 5838 5836 5833 5830 5828 5825 5822 5818 5815 5813 5810 5807 5805 5803 5800 5797 5795 5792 5789 5786 5784 5782 5779 5777 5775 5772 5770 5768 5766 5763 5761 5758 5756 5753 5751 5748 5746 5744 5741 5739 5737 5735 5733 5732 5730 5728 5727 5725 5724 5722 5721 5719
5885 5884 5883 5883 5883 5882 5882 5883 5882 5881 5880 5880 5879 5878 5876 5874 5872 5871 5869 5867 5865 5864 5862 5859 5857 5856 5855 5853 5850 5847 5845 5843 5839 5836 5834 5831 5828 5826 5823 5820 5817 5814 5811 5809 5807 5804 5802 5800 5797 5795 5792 5789 5786 5784 5782 5779 5777 5775 5772 5770 5768 5766 5763 5761 5758 5756 5754 5751 5749 5746 5744 5742 5739 5737 5735 5733 5731 5729 5727 5725 5723 5722 5720 5719 5718 5716
5882 5881 5881 5881 5881 5880 5880 5880 5880 5879 5877 5876 5876 5874 5873 5871 5870 5868 5867 5865 5863 5861 5859 5856 5854 5852 5851 5850 5847 5844 5841 5839 5836 5832 5829 5827 5824 5821 5819 5816 5813 5810 5808 5807 5805 5801 5799 5797 5795 5792 5790 5787 5784 5782 5779 5777 5775 5773 5770 5768 5766 5763 5761 5759 5756 5754 5751 5749 5747 5744 5742 5740 5737 5735 5732 5730 5728 5726 5724 5722 5721 5719 5717 5716 5714 5713
5880 5879 5879 5880 5880 5879 5878 5878 5877 5876 5875 5874 5873 5871 5870 5869 5867 5865 5863 5862 5860 5858 5855 5853 5850 5849 5848 5846 5843 5840 5838 5836 5832 5828 5825 5823 5821 5818 5815 5812 5810 5807 5805 5804 5802 5799 5797 5795 5792 5790 5787 5785 5782 5780 5777 5775 5773 5770 5768 5766 5763 5761 5758 5756 5754 5752 5749 5747 5745 5743 5740 5738 5736 5734 5731 5729 5727 5725 5723 5721 5719 5717 5715 5713 5711 5710
5878 5878 5878 5878 5878 5878 5877 5875 5874 5873 5872 5871 5870 5868 5867 5866 5864 5862 5860 5859 5857 5855 5852 5850 5848 5845 5844 5841 5838 5836 5834 5831 5828 5825 5821 5819 5817 5815 5811 5809 5807 5804 5802 5801 5799 5796 5794 5792 5790 5787 5785 5783 5780 5778 5775 5773 5770 5768 5766 5764 5761 5759 5756 5754 5752 5750 5748 5746 5744 5741 5739 5737 5735 5733 5730 5728 5726 5724 5722 5720 5717 5715 5713 5711 5709 5708
5877 5877 5876 5876 5876 5875 5874 5873 5871 5870 5869 5868 5867 5865 5864 5863 5861 5859 5856 5855 5853 5852 5849 5847 5844 5842 5840 5838 5834 5832 5830 5827 5824 5821 5818 5815 5814 5812 5808 5806 5805 5802 5799 5797 5796 5794 5791 5790 5788 5785 5783 5780 5778 5775 5773 5771 5769 5766 5764 5762 5760 5757 5755 5753 5751 5749 5747 5745 5742 5740 5738 5736 5734 5732 5730 5728 5725 5724 5722 5719 5717 5715 5713 5711 5709 5707
5876 5875 5875 5873 5873 5872 5871 5870 5869 5867 5866 5865 5863 5862 5861 5859 5857 5856 5854 5852 5849 5848 5846 5844 5841 5838 5837 5834 5831 5828 5826 5823 5820 5817 5814 5812 5811 5809 5805 5803 5802 5799 5797 5795 5793 5791 5789 5787 5785 5783 5781 5778 5776 5773 5771 5769 5767 5764 5762 5760 5758 5756 5754 5752 5750 5748 5746 5743 5741 5739 5737 5735 5733 5731 5729 5727 5725 5723 5721 5719 5717 5714 5712 5710 5708 5706